{"data":{"norad_id":62930,"intl_designator":"2025-028C","name":"KINEIS-2D","alt_names":[],"object_type":"PAYLOAD","status":"ACTIVE","operator":null,"country":"FR","launch_date":"2025-02-08","launch_site_code":"RLLB","launch_vehicle":null,"mission":null,"orbit_class":"UNKNOWN","rcs_meters":null,"size_class":null,"mass_kg":null,"dimensions":null,"purposes":[],"wikipedia_slug":null,"has_3d_model":false,"image_url":null,"decayed_at":null,"tle_current":{"epoch":"2026-09-22T16:25:48.493920Z","epoch_age_seconds":126864,"freshness":"FRESH","line1":"1 62930U 25028C   26265.68458905  .00000833  00000+0  12847-3 0  9991","line2":"2 62930  97.9192 316.2202 0001983 233.5996 126.5031 14.75922619 87091","mean_motion":14.75922619,"eccentricity":0.0001983,"inclination_deg":97.9192,"raan_deg":316.2202,"arg_perigee_deg":233.5996,"mean_anomaly_deg":126.5031,"bstar":0.00012847,"rev_number":8709,"period_min":97.56609062443,"perigee_km":640.83192796,"apogee_km":643.6162031586,"semimajor_km":7020.3610655593,"source":"CELESTRAK","updated_at":"2026-09-23T09:00:21.726860Z"}}}